FW8778 Weather Reports


time (UTC)temp
F
wind
direction
speed
knots
gust
knots
rain 1hr
in
rain 24hr
in
rain mn
in
humidity
%
barometer
mb
20220629044558 80 359 0.0 1.7 0.00 0.00 0.00 39 1011.1
20220629043053 80 359 0.0 1.7 0.00 0.00 0.00 40 1011.1
20220629041551 80 359 0.9 7.8 0.00 0.00 0.00 42 1011.0
20220629040055 80 359 0.0 2.6 0.00 0.00 0.00 42 1011.0
20220629034550 80 359 0.0 0.9 0.00 0.00 0.00 43 1011.0
20220629033047 81 359 0.0 0.9 0.00 0.00 0.00 41 1011.0
20220629031548 82 359 0.9 3.5 0.00 0.00 0.00 38 1011.5
20220629030047 83 359 0.0 1.7 0.00 0.00 0.00 37 1011.1
20220629024547 83 359 0.0 1.7 0.00 0.00 0.00 36 1011.3
20220629023049 82 359 0.0 3.5 0.00 0.00 0.00 36 1011.1
20220629021544 81 359 0.0 0.9 0.00 0.00 0.00 41 1010.9
20220629020043 80 359 0.0 0.9 0.00 0.00 0.00 41 1011.1
20220629014542 81 359 0.0 1.7 0.00 0.00 0.00 40 1011.2
20220629013038 80 359 0.0 2.6 0.00 0.00 0.00 41 1011.4
20220629011544 81 359 0.0 1.7 0.00 0.00 0.00 41 1011.5
20220629010036 81 359 0.9 2.6 0.00 0.00 0.00 41 1011.7
20220629004546 81 359 0.0 1.7 0.00 0.00 0.00 41 1011.6
20220629003037 82 359 0.9 2.6 0.00 0.00 0.00 40 1011.6
20220629001537 83 359 0.9 2.6 0.00 0.00 0.00 39 1011.6
20220629000134 83 359 0.0 2.6 0.00 0.00 0.00 38 1011.6
20220628234530 82 359 0.0 0.9 0.00 0.00 0.00 40 1011.7
20220628233028 82 359 0.0 1.7 0.00 0.00 0.00 40 1011.8
20220628231528 82 359 0.0 0.0 0.00 0.00 0.00 41 1011.9
20220628230026 83 359 0.0 0.0 0.00 0.00 0.00 40 1012.0
20220628224524 82 359 0.0 0.0 0.00 0.00 0.00 40 1012.1
20220628223027 82 359 0.0 0.0 0.00 0.00 0.00 40 1012.2
20220628221523 82 359 0.0 1.7 0.00 0.00 0.00 39 1012.5
20220628220017 82 359 0.0 0.9 0.00 0.00 0.00 39 1012.5
20220628214512 82 359 0.0 0.0 0.00 0.00 0.00 39 1012.4
20220628213011 82 359 0.0 0.0 0.00 0.00 0.00 39 1012.6
20220628211512 82 359 0.0 0.0 0.00 0.00 0.00 39 1012.8
20220628210017 82 359 0.0 0.0 0.00 0.00 0.00 40 1012.9
20220628204512 82 359 0.0 0.0 0.00 0.00 0.00 40 1012.9
20220628203011 82 359 0.0 0.0 0.00 0.00 0.00 40 1012.8
20220628201514 83 359 0.0 0.0 0.00 0.00 0.00 40 1012.7
20220628200009 83 359 0.0 0.0 0.00 0.00 0.00 42 1012.7
20220628194509 83 359 0.0 0.0 0.00 0.00 0.00 42 1012.6
20220628193008 83 359 0.0 0.9 0.00 0.00 0.00 44 1012.6
20220628191508 84 359 0.0 0.0 0.00 0.00 0.00 42 1012.4
20220628190008 84 359 0.0 0.9 0.00 0.00 0.00 45 1012.4
20220628184510 83 359 0.0 0.0 0.00 0.00 0.00 44 1012.3
20220628183009 83 359 0.0 0.9 0.00 0.00 0.00 52 1012.2
20220628181506 84 359 0.0 0.0 0.00 0.00 0.00 57 1012.1
20220628180008 84 359 0.0 0.0 0.00 0.00 0.00 59 1012.0
20220628174504 86 359 0.0 0.0 0.00 0.00 0.00 57 1012.1
20220628173002 88 359 0.0 0.0 0.00 0.00 0.00 54 1012.2
20220628171502 88 359 0.0 0.0 0.00 0.00 0.00 53 1012.2
20220628170001 89 359 0.0 0.0 0.00 0.00 0.00 52 1012.3
20220628164600 89 359 0.0 0.0 0.00 0.00 0.00 51 1012.3
20220628163100 90 359 0.0 0.0 0.00 0.00 0.00 50 1012.3
20220628161559 90 359 0.0 0.0 0.00 0.00 0.00 50 1012.4
20220628160057 90 359 0.0 0.0 0.00 0.00 0.00 50 1012.5
20220628154556 90 359 0.0 0.0 0.00 0.00 0.00 51 1012.6
20220628153057 89 359 0.0 0.0 0.00 0.00 0.00 52 1012.8
20220628151603 90 359 0.0 0.9 0.00 0.00 0.00 52 1012.8
20220628150053 90 359 0.0 1.7 0.00 0.00 0.00 52 1012.9
20220628144553 92 359 0.0 0.9 0.00 0.00 0.00 50 1012.9
20220628143051 92 359 0.0 0.9 0.00 0.00 0.00 49 1012.9
20220628141553 92 359 0.0 0.9 0.00 0.00 0.00 48 1013.0
20220628140049 93 359 0.0 0.9 0.00 0.00 0.00 46 1013.0
20220628134556 93 359 0.0 0.0 0.00 0.00 0.00 44 1012.9
20220628133047 93 359 0.0 0.9 0.00 0.00 0.00 43 1013.1
20220628131546 94 359 0.0 0.0 0.00 0.00 0.00 41 1013.1
20220628130045 93 359 0.0 0.0 0.00 0.00 0.00 42 1013.0
20220628124544 93 359 0.0 0.0 0.00 0.00 0.00 42 1013.2
20220628123043 92 359 0.0 0.9 0.00 0.00 0.00 44 1013.4
20220628121542 92 359 0.0 0.9 0.00 0.00 0.00 43 1013.3
20220628120042 92 359 0.0 0.9 0.00 0.00 0.00 43 1013.4
20220628114541 93 359 0.0 2.6 0.00 0.00 0.00 41 1013.6
20220628113043 96 359 0.0 1.7 0.00 0.00 0.00 35 1013.3
20220628111546 95 359 0.0 4.3 0.00 0.00 0.00 28 1013.2
20220628110046 95 359 0.0 2.6 0.00 0.00 0.00 35 1013.2
20220628104534 94 359 0.0 2.6 0.00 0.00 0.00 29 1013.3
20220628103034 94 359 0.0 1.7 0.00 0.00 0.00 31 1013.3
20220628101530 93 359 0.0 1.7 0.00 0.00 0.00 34 1013.5
20220628100031 92 359 0.0 1.7 0.00 0.00 0.00 36 1013.6
20220628094529 92 359 0.0 1.7 0.00 0.00 0.00 35 1013.5
20220628093026 92 359 0.0 1.7 0.00 0.00 0.00 32 1013.4
20220628091523 92 359 0.0 1.7 0.00 0.00 0.00 31 1013.6
20220628090020 91 359 0.0 0.9 0.00 0.00 0.00 33 1013.6
20220628084532 90 359 0.0 1.7 0.00 0.00 0.00 35 1013.7
20220628083020 91 359 0.9 4.3 0.00 0.00 0.00 32 1013.8
20220628081517 91 359 0.0 0.0 0.00 0.00 0.00 36 1013.9
20220628080013 89 359 0.0 0.0 0.00 0.00 0.00 42 1013.9
20220628074512 88 359 0.0 0.0 0.00 0.00 0.00 42 1013.9
20220628073011 88 359 0.0 0.0 0.00 0.00 0.00 40 1014.1
20220628071513 88 359 0.0 0.9 0.00 0.00 0.00 38 1014.1
20220628070007 87 359 0.0 0.9 0.00 0.00 0.00 38 1014.2
20220628064507 87 359 0.0 0.9 0.00 0.00 0.00 37 1014.2
20220628063006 86 359 0.0 0.0 0.00 0.00 0.00 37 1014.1
20220628061503 85 359 0.0 0.0 0.00 0.00 0.00 36 1014.0
20220628060100 86 359 0.0 0.0 0.00 0.00 0.00 37 1014.0
20220628054558 84 359 0.0 0.0 0.00 0.00 0.00 37 1013.9
20220628053107 83 359 0.0 0.0 0.00 0.00 0.00 37 1013.8
20220628051552 82 359 0.0 0.0 0.00 0.00 0.00 37 1013.7
20220628050051 80 359 0.0 0.0 0.00 0.00 0.00 35 1013.8